Miscellaneous Local Product
Issued by NWS Hastings, NE

Home | Current Version | Previous Version | Graphics & Text | Print | Product List | Glossary On
Versions: 1 2 3 4 5 6 7 8 9 10 11 12 13 14 15 16 17 18 19 20 21 22 23 24 25 26 27 28 29 30 31 32 33 34 35 36 37 38 39 40 41 42 43 44 45 46 47 48 49 50
352
AXUS43 KGID 130202
MISGRI

GID CWA HOURLY WEATHER ROUNDUP
NATIONAL WEATHER SERVICE HASTINGS NE
800 PM CST TUE DEC 12 2017

NOTE: "FAIR" INDICATES FEW OR NO CLOUDS BELOW 12,000 FEET WITH NO
SIGNIFICANT WEATHER AND/OR OBSTRUCTIONS TO VISIBILITY.

...SOUTH CENTRAL NEBRASKA...

CITY           SKY/WX    TMP DP  RH WIND       PRES   REMARKS
GRAND ISLAND   CLEAR     42  21  43 SW14      29.92F
KEARNEY        CLEAR     41  20  43 SW13      29.94F
HASTINGS       CLEAR     41  18  39 S7        29.95F
ORD            CLEAR     43  20  39 SW14      29.88F
AURORA         CLEAR     39  19  45 SW12      29.92F WCI  32
LEXINGTON      CLOUDY    38  20  49 N5        29.94F WCI  34
HOLDREGE       CLEAR     39  21  47 SW8       29.95F WCI  34
HEBRON         CLEAR     40  25  53 SW10      29.97F WCI  34

...NEBRASKA PANHANDLE...

CITY           SKY/WX    TMP DP  RH WIND       PRES   REMARKS
CHADRON        CLEAR     41  17  38 W7        29.95F
ALLIANCE       CLEAR     29  16  58 W13       29.98F WCI  19
SCOTTSBLUFF    CLEAR     43  16  33 NW8       30.03F
SIDNEY         CLEAR     48  12  23 W15       30.04F

...WESTERN AND NORTH CENTRAL NEBRASKA...

CITY           SKY/WX    TMP DP  RH WIND       PRES   REMARKS
VALENTINE      CLEAR     41  20  43 SW8       29.85F
AINSWORTH      CLEAR     39  22  51 SW9       29.85F WCI  33
ONEILL         CLEAR     42  21  44 SW9       29.85F
BROKEN BOW     CLEAR     33  19  56 CALM      29.90F
IMPERIAL       CLEAR     43  17  35 W10       30.00F
NORTH PLATTE   CLEAR     34  20  56 NW6       29.95F WCI  29
MCCOOK         CLEAR     42  19  39 W8        29.98F

...EASTERN NEBRASKA...

CITY           SKY/WX    TMP DP  RH WIND       PRES   REMARKS
NORFOLK        CLEAR     40  20  44 SW9       29.85F WCI  34
SO SIOUX CITY  CLEAR     28  22  78 E6        29.88F WCI  22
TEKAMAH        CLEAR     27  19  72 S9        29.92F WCI  18
ALBION         CLEAR     41  19  40 S3        29.88F
OMAHA EPPLEY   CLEAR     32  24  72 SE8       29.94F WCI  25
OFFUTT AFB     CLEAR     31  24  76 SE5       29.94F WCI  26
MILLARD        CLEAR     36  27  70 SE3       29.94F
LINCOLN        CLEAR     35  24  64 S8        29.95F WCI  29
NEBRASKA CITY  CLEAR     33  28  80 SW9       29.96F WCI  26
BEATRICE       CLEAR     41  27  56 SW10      29.97F
FALLS CITY     CLEAR     35  26  69 S12       29.99F WCI  27

...NORTHERN KANSAS...

CITY           SKY/WX    TMP DP  RH WIND       PRES   REMARKS
GOODLAND       CLEAR     45  16  31 SW12      30.04F
HILL CITY      CLEAR     42  18  37 W6        29.99F
NORTON         CLEAR     37  12  35 SW9       29.97F WCI  31
PHILLIPSBURG   CLEAR     39  18  41 CALM      29.98F
SMITH CENTER   CLEAR     37  18  44 SE5       29.99F WCI  34
HAYS           CLEAR     42  16  34 W5        30.01F
RUSSELL        CLEAR     41  19  41 S12       29.99F
CONCORDIA      CLEAR     42  25  50 S13       29.99F
SALINA         CLEAR     39  24  55 S8        30.03F WCI  33
TOPEKA         CLEAR     37  28  70 S5        30.04F WCI  33



USA.gov is the U.S. government's official web portal to all federal, state and local government web resources and services.